Location: Unspecified
(50.7693°N, 0.0000°E)
Time: 08:42:11
(UTC+00:00)

Transit 4A - Pass Details

Date: 01 July 2019
Orbit: 862 x 982 km, 66.8° (Epoch: 17 July)

Event Time Altitude Azimuth Distance (km) Brightness Sun altitude
Rises 14:03:39 0° 322° (NW) 3,695 11.0 53.9°
Reaches altitude 10° 14:06:16 10° 324° (NW) 2,739 10.5 53.6°
Maximum altitude 14:12:41 74° 50° (NE) 1,006 8.8 52.8°
Drops below altitude 10° 14:18:56 10° 136° (SE) 2,665 10.3 52.0°
Sets 14:21:27 0° 138° (SE) 3,589 10.9 51.6°
